When you browse on this site, cookies collect data to enhance your experience and personalize the content and advertising you see.
Visit our Privacy Policy to learn more. By continuing to use the site, you agree to this use of cookies and data.
  • In Switzerland
  • List of Countries
  • For 7 days
  • Water Temperature
  • Weather Map
  • Weather Widgets
  • user-avatar
    Login

    Hourly Weather Innsbruck

    Today, 30 May, Saturday

    Time Temperature Precipitation Wind Pressure Humidity
    00:00 -2°C° 0 mm 1 mps 595 mmHg 90%
    01:00 -2°C° 0 mm 1 mps 595 mmHg 90%
    02:00 -2°C° 0 mm 1 mps 595 mmHg 90%
    03:00 -2°C° 0 mm 1 mps 595 mmHg 90%
    04:00 -3°C° 0 mm 0 mps 594 mmHg 89%
    05:00 0°C° 0 mm 1 mps 595 mmHg 83%
    06:00 +2°C° 0 mm 1 mps 596 mmHg 76%
    07:00 +4°C° 0 mm 1 mps 597 mmHg 70%
    08:00 +5°C° 0 mm 1 mps 597 mmHg 64%
    09:00 +6°C° 0 mm 2 mps 597 mmHg 58%
    10:00 +7°C° 0 mm 2 mps 598 mmHg 52%
    11:00 +7°C° 0 mm 2 mps 598 mmHg 52%
    12:00 +8°C° 0 mm 2 mps 598 mmHg 52%
    13:00 +8°C° 0 mm 3 mps 598 mmHg 52%
    14:00 +8°C° 0.1 mm 3 mps 597 mmHg 55%
    15:00 +7°C° 0.1 mm 3 mps 597 mmHg 58%
    16:00 +7°C° 0.1 mm 3 mps 597 mmHg 60%
    17:00 +5°C° 0.1 mm 3 mps 596 mmHg 69%
    18:00 +5°C° 0.1 mm 2 mps 596 mmHg 78%
    19:00 +3°C° 0.1 mm 2 mps 595 mmHg 86%
    20:00 +2°C° 0 mm 2 mps 595 mmHg 90%
    21:00 +2°C° 0 mm 1 mps 595 mmHg 94%
    22:00 +1°C° 0 mm 1 mps 595 mmHg 97%
    23:00 0°C° 0 mm 1 mps 595 mmHg 97%

    Tomorrow, 31 May, Sunday

    Time Temperature Precipitation Wind Pressure Humidity
    00:00 0°C° 0 mm 1 mps 595 mmHg 96%
    01:00 -1°C° 0 mm 0 mps 595 mmHg 96%
    02:00 0°C° 0 mm 1 mps 594 mmHg 95%
    03:00 0°C° 0 mm 1 mps 594 mmHg 94%
    04:00 0°C° 0 mm 1 mps 594 mmHg 94%
    05:00 +1°C° 0 mm 1 mps 595 mmHg 90%
    06:00 +2°C° 0 mm 1 mps 595 mmHg 86%
    07:00 +3°C° 0 mm 1 mps 595 mmHg 82%
    08:00 +4°C° 0 mm 1 mps 596 mmHg 75%
    09:00 +5°C° 0 mm 2 mps 597 mmHg 68%
    10:00 +6°C° 0 mm 2 mps 597 mmHg 62%
    11:00 +7°C° 0 mm 2 mps 597 mmHg 59%
    12:00 +8°C° 0 mm 2 mps 597 mmHg 57%
    13:00 +8°C° 0 mm 3 mps 597 mmHg 54%
    14:00 +8°C° 0 mm 3 mps 597 mmHg 53%
    15:00 +8°C° 0 mm 3 mps 597 mmHg 52%
    16:00 +8°C° 0 mm 3 mps 597 mmHg 51%
    17:00 +7°C° 0 mm 3 mps 597 mmHg 58%
    18:00 +6°C° 0 mm 2 mps 597 mmHg 65%
    19:00 +5°C° 0 mm 2 mps 597 mmHg 71%
    20:00 +3°C° 0 mm 2 mps 596 mmHg 79%
    21:00 +2°C° 0 mm 1 mps 596 mmHg 86%
    22:00 +1°C° 0 mm 1 mps 595 mmHg 94%
    23:00 0°C° 0 mm 1 mps 595 mmHg 93%

    Day after tomorrow, 1 June, Monday

    Time Temperature Precipitation Wind Pressure Humidity
    00:00 0°C° 0 mm 1 mps 595 mmHg 92%
    01:00 0°C° 0 mm 1 mps 595 mmHg 91%
    02:00 0°C° 0 mm 1 mps 594 mmHg 91%
    03:00 -1°C° 0 mm 1 mps 594 mmHg 90%
    04:00 -1°C° 0 mm 1 mps 594 mmHg 89%
    05:00 +2°C° 0 mm 1 mps 595 mmHg 82%
    06:00 +4°C° 0 mm 1 mps 596 mmHg 75%
    07:00 +6°C° 0 mm 1 mps 597 mmHg 68%
    08:00 +8°C° 0 mm 1 mps 598 mmHg 62%
    09:00 +9°C° 0 mm 2 mps 598 mmHg 56%
    10:00 +10°C° 0 mm 2 mps 599 mmHg 50%
    11:00 +12°C° 0 mm 2 mps 599 mmHg 47%
    12:00 +13°C° 0 mm 2 mps 600 mmHg 45%
    13:00 +14°C° 0 mm 2 mps 600 mmHg 43%
    14:00 +13°C° 0 mm 3 mps 600 mmHg 45%
    15:00 +13°C° 0 mm 3 mps 600 mmHg 48%
    16:00 +13°C° 0 mm 3 mps 599 mmHg 50%
    17:00 +12°C° 0 mm 2 mps 599 mmHg 59%
    18:00 +10°C° 0 mm 2 mps 598 mmHg 68%
    19:00 +8°C° 0 mm 2 mps 598 mmHg 77%
    20:00 +7°C° 0 mm 1 mps 597 mmHg 83%
    21:00 +5°C° 0 mm 1 mps 596 mmHg 89%
    22:00 +2°C° 0 mm 0 mps 595 mmHg 96%
    23:00 +2°C° 0 mm 0 mps 595 mmHg 95%

    2 June, Tuesday

    Time Temperature Precipitation Wind Pressure Humidity
    00:00 +1°C° 0 mm 0 mps 595 mmHg 95%
    01:00 +1°C° 0 mm 0 mps 595 mmHg 95%
    02:00 +1°C° 0 mm 0 mps 595 mmHg 94%
    03:00 +1°C° 0 mm 0 mps 595 mmHg 94%
    04:00 +1°C° 0 mm 0 mps 595 mmHg 94%
    05:00 +3°C° 0 mm 0 mps 596 mmHg 87%
    06:00 +5°C° 0 mm 0 mps 596 mmHg 80%
    07:00 +9°C° 0 mm 1 mps 597 mmHg 74%
    08:00 +10°C° 0 mm 1 mps 598 mmHg 64%
    09:00 +12°C° 0 mm 1 mps 599 mmHg 54%
    10:00 +14°C° 0 mm 2 mps 599 mmHg 44%
    11:00 +14°C° 0 mm 2 mps 599 mmHg 42%
    12:00 +15°C° 0 mm 2 mps 599 mmHg 40%
    13:00 +16°C° 0 mm 3 mps 599 mmHg 38%
    14:00 +14°C° 0.1 mm 3 mps 598 mmHg 41%
    15:00 +14°C° 0.1 mm 3 mps 598 mmHg 45%
    16:00 +13°C° 0.1 mm 3 mps 597 mmHg 48%
    17:00 +12°C° 0.2 mm 2 mps 597 mmHg 58%
    18:00 +10°C° 0.2 mm 2 mps 596 mmHg 67%
    19:00 +9°C° 0.2 mm 1 mps 595 mmHg 77%
    20:00 +7°C° 0 mm 1 mps 594 mmHg 82%
    21:00 +6°C° 0 mm 1 mps 593 mmHg 88%
    22:00 +4°C° 0 mm 1 mps 592 mmHg 93%
    23:00 +4°C° 0 mm 1 mps 592 mmHg 93%

    3 June, Wednesday

    Time Temperature Precipitation Wind Pressure Humidity
    00:00 +4°C° 0 mm 1 mps 592 mmHg 93%
    01:00 +4°C° 0 mm 1 mps 592 mmHg 93%
    02:00 +4°C° 0 mm 1 mps 591 mmHg 93%
    03:00 +4°C° 0 mm 1 mps 591 mmHg 93%
    04:00 +5°C° 0 mm 1 mps 591 mmHg 92%
    05:00 +6°C° 0 mm 1 mps 591 mmHg 88%
    06:00 +7°C° 0 mm 1 mps 592 mmHg 85%
    07:00 +8°C° 0 mm 1 mps 592 mmHg 81%
    08:00 +9°C° 0.3 mm 1 mps 592 mmHg 78%
    09:00 +10°C° 0.3 mm 1 mps 593 mmHg 75%
    10:00 +10°C° 0.3 mm 1 mps 593 mmHg 73%
    11:00 +11°C° 0.6 mm 1 mps 593 mmHg 70%
    12:00 +11°C° 0.6 mm 1 mps 593 mmHg 68%
    13:00 +12°C° 0.6 mm 1 mps 593 mmHg 66%
    14:00 +11°C° 0.8 mm 1 mps 593 mmHg 68%
    15:00 +11°C° 0.8 mm 1 mps 593 mmHg 70%
    16:00 +10°C° 0.8 mm 1 mps 592 mmHg 72%
    17:00 +9°C° 0.6 mm 1 mps 592 mmHg 76%
    18:00 +9°C° 0.6 mm 1 mps 592 mmHg 80%
    19:00 +8°C° 0.6 mm 1 mps 592 mmHg 85%
    20:00 +7°C° 0.1 mm 1 mps 591 mmHg 88%
    21:00 +4°C° 0.1 mm 0 mps 591 mmHg 92%
    22:00 +3°C° 0.1 mm 0 mps 591 mmHg 96%
    23:00 +3°C° 0 mm 0 mps 591 mmHg 96%

    4 June, Thursday

    Time Temperature Precipitation Wind Pressure Humidity
    00:00 +3°C° 0 mm 0 mps 591 mmHg 96%
    01:00 +3°C° 0 mm 0 mps 591 mmHg 96%
    02:00 +2°C° 0 mm 0 mps 590 mmHg 96%
    03:00 +1°C° 0 mm 0 mps 590 mmHg 96%
    04:00 0°C° 0 mm 0 mps 590 mmHg 95%
    05:00 +2°C° 0 mm 0 mps 591 mmHg 89%
    06:00 +4°C° 0 mm 0 mps 592 mmHg 84%
    07:00 +6°C° 0 mm 0 mps 593 mmHg 78%
    08:00 +9°C° 0 mm 1 mps 594 mmHg 67%
    09:00 +11°C° 0 mm 1 mps 594 mmHg 56%
    10:00 +13°C° 0 mm 1 mps 595 mmHg 45%
    11:00 +14°C° 0 mm 2 mps 595 mmHg 42%
    12:00 +15°C° 0 mm 2 mps 596 mmHg 39%
    13:00 +16°C° 0 mm 2 mps 596 mmHg 36%
    14:00 +15°C° 0.1 mm 2 mps 595 mmHg 38%
    15:00 +15°C° 0.1 mm 2 mps 595 mmHg 41%
    16:00 +15°C° 0.1 mm 2 mps 595 mmHg 43%
    17:00 +13°C° 0.2 mm 2 mps 594 mmHg 52%
    18:00 +12°C° 0.2 mm 1 mps 594 mmHg 61%
    19:00 +11°C° 0.2 mm 1 mps 593 mmHg 70%
    20:00 +9°C° 0 mm 1 mps 593 mmHg 76%
    21:00 +8°C° 0 mm 1 mps 592 mmHg 81%
    22:00 +6°C° 0 mm 1 mps 592 mmHg 86%
    23:00 +5°C° 0 mm 2 mps 592 mmHg 86%
    Show more